Weather History for Camden, AR

Change the Weather History Date:

Tuesday, January 15, 2013

  Actual Average Record
Temperature  
Mean Temperature 30 °F -  
Max Temperature 32 °F 51 °F 77 °F (1971)
Min Temperature 28 °F 28 °F 10 °F (1964)
Degree Days  
Heating Degree Days 35    
Moisture  
Dew Point 24 °F    
Average Humidity 79    
Maximum Humidity 93    
Minimum Humidity 64    
Precipitation  
Precipitation 0.10 in - - ()
Sea Level Pressure  
Sea Level Pressure 30.19 in    
Wind  
Wind Speed 6 mph (NNE)    
Max Wind Speed 13 mph    
Max Gust Speed 18 mph    
Visibility 7 miles    
Events Rain    
Averages and records for this station are not official NWS values.
T = Trace of Precipitation, MM = Missing Value Source: NWS Daily Summary

Daily Weather History Graph

Daily Weather History Graph

Search for Another Location

Airport:

Trip Planner

Search our weather history database for the weather conditions in past years. The results will help you decide how hot, cold, wet, or windy it might be!

Date:

Astronomy

Jan. 15, 2013 Rise Set
Actual Time 7:15 AM CST 5:26 PM CST
Civil Twilight 6:48 AM CST 5:53 PM CST
Nautical Twilight 6:17 AM CST 6:23 PM CST
Astronomical Twilight 5:47 AM CST 6:53 PM CST
Moon 9:36 AM CST (1/15) 9:59 PM CST (1/15)
Length of Visible Light 11h 04m
Length of Day
10h 10m
Waxing Crescent, 19% of the Moon is Illuminated
Jan 15
Waxing Crescent
Jan 18
First Quarter
Jan 26
Full
Feb 3
Last Quarter
Feb 10
New

Hourly Weather History & Observations

Time (CST) Temp. Windchill Dew Point Humidity Pressure Visibility Wind Dir Wind Speed Gust Speed Precip Events Conditions
12:15 AM 28.4 °F 19.7 °F 19.4 °F 69% 30.27 in 10.0 mi North 9.2 mph - N/A   Clear
12:55 AM 28.4 °F 19.1 °F 19.4 °F 69% 30.25 in 10.0 mi NNE 10.4 mph - N/A   Clear
1:15 AM 28.4 °F 19.7 °F 17.6 °F 64% 30.25 in 10.0 mi NNE 9.2 mph - N/A   Clear
1:35 AM 28.4 °F 19.7 °F 17.6 °F 64% 30.24 in 10.0 mi NNE 9.2 mph - N/A   Clear
1:55 AM 28.4 °F 19.7 °F 17.6 °F 64% 30.24 in 10.0 mi NNE 9.2 mph - N/A   Clear
2:15 AM 28.4 °F 19.7 °F 17.6 °F 64% 30.23 in 10.0 mi NNE 9.2 mph - N/A   Clear
2:35 AM 28.4 °F 18.5 °F 17.6 °F 64% 30.22 in 10.0 mi North 11.5 mph - N/A   Clear
2:55 AM 28.4 °F 19.1 °F 17.6 °F 64% 30.21 in 10.0 mi NNE 10.4 mph - N/A   Clear
3:15 AM 28.4 °F 19.7 °F 19.4 °F 69% 30.21 in 10.0 mi NNE 9.2 mph - N/A   Clear
3:35 AM 28.4 °F 20.4 °F 19.4 °F 69% 30.21 in 10.0 mi NNE 8.1 mph - N/A   Clear
3:55 AM 28.4 °F 21.2 °F 19.4 °F 69% 30.22 in 10.0 mi North 6.9 mph - N/A   Clear
4:15 AM 28.4 °F 21.2 °F 19.4 °F 69% 30.21 in 10.0 mi North 6.9 mph - N/A   Clear
4:35 AM 28.4 °F 18.0 °F 19.4 °F 69% 30.18 in 10.0 mi NNE 12.7 mph - N/A   Clear
4:55 AM 28.4 °F 22.2 °F 19.4 °F 69% 30.21 in 10.0 mi NE 5.8 mph - N/A   Partly Cloudy
5:15 AM 28.4 °F 23.3 °F 19.4 °F 69% 30.21 in 10.0 mi NNE 4.6 mph - N/A   Mostly Cloudy
5:35 AM 28.4 °F 19.1 °F 19.4 °F 69% 30.22 in 10.0 mi North 10.4 mph - N/A   Overcast
5:55 AM 28.4 °F 19.1 °F 19.4 °F 69% 30.22 in 10.0 mi North 10.4 mph - N/A   Overcast
6:15 AM 28.4 °F 19.7 °F 19.4 °F 69% 30.23 in 10.0 mi North 9.2 mph - N/A   Overcast
6:35 AM 28.4 °F 18.5 °F 19.4 °F 69% 30.22 in 10.0 mi North 11.5 mph 18.4 mph N/A   Overcast
6:55 AM 28.4 °F 18.5 °F 19.4 °F 69% 30.20 in 10.0 mi NNE 11.5 mph - N/A   Overcast
7:15 AM 28.4 °F 19.1 °F 19.4 °F 69% 30.20 in 10.0 mi North 10.4 mph - N/A   Overcast
7:35 AM 28.4 °F 21.2 °F 19.4 °F 69% 30.22 in 10.0 mi North 6.9 mph - N/A   Overcast
7:55 AM 30.2 °F 21.9 °F 19.4 °F 64% 30.20 in 10.0 mi NNE 9.2 mph 17.3 mph N/A   Overcast
8:15 AM 30.2 °F 21.9 °F 19.4 °F 64% 30.21 in 10.0 mi NNE 9.2 mph - N/A Rain Light Freezing Rain
8:35 AM 30.2 °F 20.8 °F 19.4 °F 64% 30.16 in 10.0 mi NNE 11.5 mph - N/A Rain Light Freezing Rain
8:55 AM 30.2 °F 20.2 °F 19.4 °F 64% 30.18 in 10.0 mi NNE 12.7 mph 18.4 mph N/A   Overcast
9:15 AM 30.2 °F 22.6 °F 19.4 °F 64% 30.23 in 10.0 mi North 8.1 mph - N/A   Overcast
9:35 AM 28.4 °F 18.5 °F 21.2 °F 74% 30.25 in 5.0 mi NNW 11.5 mph - N/A Rain Light Freezing Rain
9:55 AM 28.4 °F 18.0 °F 23.0 °F 80% 30.27 in 4.0 mi NNW 12.7 mph 17.3 mph N/A Rain Light Freezing Rain
10:15 AM 28.4 °F - 24.8 °F 86% 30.28 in 2.5 mi Calm Calm - 0.01 in Rain Light Freezing Rain
10:35 AM 28.4 °F - 24.8 °F 86% 30.22 in 1.0 mi Calm Calm - 0.02 in   Overcast
10:55 AM 28.4 °F - 26.6 °F 93% 30.22 in 1.8 mi Calm Calm - 0.04 in Rain Light Freezing Rain
11:15 AM 30.2 °F - 26.6 °F 86% 30.21 in 2.0 mi Calm Calm - 0.02 in Rain Light Freezing Rain
11:35 AM 30.2 °F - 24.8 °F 80% 30.20 in 1.8 mi Calm Calm - 0.03 in Rain Light Freezing Rain
11:55 AM 30.2 °F - 24.8 °F 80% 30.20 in 1.5 mi Calm Calm - 0.05 in Rain Light Freezing Rain
12:15 PM 30.2 °F - 24.8 °F 80% 30.19 in 2.0 mi Calm Calm - 0.01 in Rain Light Freezing Rain
12:35 PM 28.4 °F - 26.6 °F 93% 30.17 in 3.0 mi Calm Calm - 0.01 in Rain Light Freezing Rain
1:15 PM 30.2 °F - 26.6 °F 86% 30.14 in 3.0 mi Calm Calm - N/A Rain Light Freezing Rain
1:35 PM 28.4 °F - 26.6 °F 93% 30.16 in 7.0 mi Calm Calm - N/A Rain Light Freezing Rain
1:55 PM 30.2 °F - 26.6 °F 86% 30.16 in 4.0 mi Calm Calm - N/A Rain Light Freezing Rain
2:15 PM 30.2 °F - 26.6 °F 86% 30.15 in 3.0 mi Calm Calm - N/A Rain Light Freezing Rain
2:35 PM 30.2 °F - 26.6 °F 86% 30.13 in 2.0 mi Calm Calm - N/A Rain Light Freezing Rain
3:15 PM 30.2 °F - 26.6 °F 86% 30.13 in 5.0 mi Calm Calm - N/A   Overcast
3:35 PM 30.2 °F - 26.6 °F 86% 30.13 in 9.0 mi Calm Calm - N/A   Overcast
3:55 PM 30.2 °F - 26.6 °F 86% 30.12 in 10.0 mi Calm Calm - N/A   Overcast
4:15 PM 30.2 °F - 26.6 °F 86% 30.12 in 9.0 mi Calm Calm - N/A   Overcast
4:35 PM 30.2 °F - 26.6 °F 86% 30.15 in 10.0 mi Calm Calm - N/A   Overcast
5:15 PM 32.0 °F - 26.6 °F 80% 30.16 in 10.0 mi Calm Calm - N/A   Overcast
5:35 PM 32.0 °F - 28.4 °F 87% 30.15 in 10.0 mi Calm Calm - N/A   Overcast
5:55 PM 32.0 °F - 28.4 °F 87% 30.14 in 8.0 mi Calm Calm - N/A   Overcast
6:15 PM 32.0 °F - 28.4 °F 87% 30.13 in 10.0 mi Calm Calm - N/A   Overcast
6:35 PM 32.0 °F - 28.4 °F 87% 30.15 in 10.0 mi Calm Calm - N/A   Overcast
6:55 PM 32.0 °F - 28.4 °F 87% 30.16 in 10.0 mi Calm Calm - N/A   Overcast
7:15 PM 32.0 °F - 28.4 °F 87% 30.17 in 10.0 mi Calm Calm - N/A   Overcast
7:35 PM 32.0 °F - 28.4 °F 87% 30.16 in 10.0 mi Calm Calm - N/A   Overcast
7:55 PM 32.0 °F - 28.4 °F 87% 30.16 in 7.0 mi Calm Calm - N/A   Overcast
8:15 PM 32.0 °F - 28.4 °F 87% 30.15 in 8.0 mi Calm Calm - N/A   Overcast
8:35 PM 32.0 °F - 30.2 °F 93% 30.15 in 5.0 mi Calm Calm - N/A   Overcast
8:55 PM 32.0 °F - 30.2 °F 93% 30.16 in 3.0 mi Calm Calm - N/A   Overcast
9:15 PM 32.0 °F - 30.2 °F 93% 30.18 in 7.0 mi Calm Calm - N/A   Overcast
9:35 PM 32.0 °F - 30.2 °F 93% 30.17 in 3.0 mi Calm Calm - N/A   Overcast
9:55 PM 32.0 °F - 30.2 °F 93% 30.17 in 5.0 mi Calm Calm - N/A   Overcast
10:15 PM 32.0 °F - 30.2 °F 93% 30.18 in 7.0 mi Calm Calm - N/A   Overcast
10:35 PM 32.0 °F - 30.2 °F 93% 30.19 in 2.5 mi Calm Calm - N/A Rain Light Rain
10:55 PM 32.0 °F - 30.2 °F 93% 30.17 in 2.5 mi Calm Calm - N/A Rain Light Rain
11:15 PM 32.0 °F - 30.2 °F 93% 30.17 in 2.5 mi Calm Calm - N/A   Overcast
11:35 PM 32.0 °F - 30.2 °F 93% 30.16 in 3.0 mi Calm Calm - N/A   Overcast
11:55 PM 32.0 °F - 30.2 °F 93% 30.18 in 4.0 mi Calm Calm - N/A   Overcast